This demonstration page uses our WeatherBlox Daily Observations layout. Learn more.

Left ArrowRight Arrow

44.89941, -97.11507

Hourly Observations for August 15, 2022

Temp ( °F °C ) Dew Point ( °F °C ) Humidity (%) Winds ( mph kmh ) Pressure ( in mb ) Visibility ( mi km ) Precip ( " mm )
12:53 am 00:53 Clear 66 18.9 63 17.2 90 90 SE 6 9 30.00 1016 10 16 0.00 0.00
1:53 am 01:53 Clear 65 18.3 63 17.2 93 93 SE 7 11 30.01 1016 10 16 0.00 0.00
2:53 am 02:53 Clear 64 17.8 63 17.2 96 96 SSE 8 13 30.01 1016 10 16 0.00 0.00
3:53 am 03:53 Clear 64 17.8 62 16.7 93 93 SSE 10 17 30.01 1016 10 16 0.00 0.00
4:53 am 04:53 Clear 64 17.8 62 16.7 93 93 SSE 10 17 30.01 1016 10 16 0.00 0.00
5:53 am 05:53 Clear 64 17.8 62 16.7 93 93 SSE 9 15 30.01 1016 10 16 0.00 0.00
6:53 am 06:53 Sunny 63 17.2 62 16.7 97 97 SSE 6 9 30.01 1016 10 16 0.00 0.00
7:53 am 07:53 Sunny 64 17.8 62 16.7 93 93 SSE 7 11 30.02 1017 10 16 0.00 0.00
8:53 am 08:53 Sunny 66 18.9 63 17.2 90 90 S 8 13 30.01 1016 10 16 0.00 0.00
9:04 am 09:04 Mostly Sunny 66 18.9 63 17.2 90 90 SSE 9 15 29.98 1015 10 16 0.00 0.00
9:53 am 09:53 Sunny 67 19.4 63 17.2 87 87 SSE 5 7 30.00 1016 10 16 0.00 0.00
10:53 am 10:53 Sunny 69 20.6 61 16.1 75 75 SSW 7 11 30.01 1016 10 16 0.00 0.00
11:53 am 11:53 Sunny 71 21.7 63 17.2 76 76 SW 3 6 30.02 1017 10 16 0.00 0.00
12:53 pm 12:53 Sunny 73 22.8 63 17.2 71 71 VRB 6 9 30.04 1017 10 16 0.00 0.00
1:53 pm 13:53 Mostly Cloudy 76 24.4 65 18.3 69 69 WSW 8 13 30.04 1017 10 16 0.00 0.00
2:14 pm 14:14 Partly Cloudy 75 23.9 64 17.8 69 69 WSW 7 11 29.99 1016 10 16 0.00 0.00
2:53 pm 14:53 Mostly Cloudy 75 23.9 65 18.3 71 71 SW 7 11 30.05 1018 10 16 0.00 0.00
3:53 pm 15:53 Mostly Cloudy 78 25.6 66 18.9 67 67 S 9 15 30.04 1017 10 16 0.00 0.00
4:53 pm 16:53 Mostly Sunny 75 23.9 66 18.9 74 74 SSW 9 15 30.05 1018 10 16 0.00 0.00
5:53 pm 17:53 Mostly Sunny 74 23.3 65 18.3 74 74 SSW 9 15 30.05 1018 10 16 0.00 0.00
6:53 pm 18:53 Mostly Cloudy 73 22.8 65 18.3 76 76 SW 10 17 30.05 1018 10 16 0.00 0.00
7:19 pm 19:19 Partly Cloudy 72 22.2 64 17.8 76 76 SSW 9 15 30.00 1016 10 16 0.00 0.00
7:53 pm 19:53 Sunny 71 21.7 64 17.8 79 79 SSW 7 11 30.05 1018 10 16 0.00 0.00
8:53 pm 20:53 Clear 69 20.6 65 18.3 87 87 S 7 11 30.05 1018 10 16 0.00 0.00
9:53 pm 21:53 Clear 67 19.4 64 17.8 90 90 S 8 13 30.08 1019 10 16 0.00 0.00
10:33 pm 22:33 Mostly Clear 66 18.9 64 17.8 93 93 S 8 13 30.05 1018 10 16 0.00 0.00
10:53 pm 22:53 Mostly Cloudy 66 18.9 64 17.8 93 93 S 12 19 30.08 1019 10 16 0.00 0.00
11:05 pm 23:05 Partly Cloudy 65 18.3 64 17.8 97 97 S 12 19 30.04 1017 10 16 0.00 0.00
11:53 pm 23:53 Clear 64 17.8 62 16.7 93 93 SSW 10 17 30.06 1018 10 16 0.00 0.00

Powered by AerisWeather